Weather History for EGHH - January, 2014

Change the Weather History Date:

Thursday, January 16, 2014

  Actual Average Record
Temperature  
Mean Temperature 47 °F -  
Max Temperature 51 °F 46 °F 53 °F (1999)
Min Temperature 43 °F 34 °F 23 °F (1997)
Degree Days  
Heating Degree Days 18    
Moisture  
Dew Point 43 °F    
Average Humidity 84    
Maximum Humidity 93    
Minimum Humidity 68    
Precipitation  
Precipitation 0.24 in 0.10 in - ()
Sea Level Pressure  
Sea Level Pressure 29.20 in    
Wind  
Wind Speed 10 mph ()    
Max Wind Speed 22 mph    
Max Gust Speed 32 mph    
Visibility 6.7 miles    
Events Rain    
Averages and records for this station are not official NWS values.
T = Trace of Precipitation, MM = Missing Value Source: Averaged Metar Reports

Daily Weather History Graph

Daily Weather History Graph

Search for Another Location

Airport or City:

Trip Planner

Search our weather history database for the weather conditions in past years. The results will help you decide how hot, cold, wet, or windy it might be!

Date:

Astronomy

Jan. 16, 2014 Rise Set
Actual Time 8:02 AM GMT 4:32 PM GMT
Civil Twilight 7:24 AM GMT 5:09 PM GMT
Nautical Twilight 6:43 AM GMT 5:50 PM GMT
Astronomical Twilight 6:04 AM GMT 6:30 PM GMT
Moon 5:20 PM GMT (1/16) 7:38 AM GMT (1/16)
Length of Visible Light 9h 44m
Length of Day
8h 29m
Full, 100% of the Moon is Illuminated
Jan 16
Full
Jan 24
Last Quarter
Jan 30
New
Feb 6
First Quarter
Feb 14
Full

Hourly Weather History & Observations

Time (GMT) Temp. Windchill Dew Point Humidity Pressure Visibility Wind Dir Wind Speed Gust Speed Precip Events Conditions
12:00 AM 49 °F - 47 °F 90% 29.31 in 5 mi SW 10.4 mph - - Rain Rain Showers
1:00 AM 49 °F - 46 °F 87% 29.30 in 7 mi SW 8.1 mph - - Rain Rain
1:20 AM 48.2 °F - 46.4 °F 93% 29.30 in 3.1 mi South 8.1 mph - N/A Rain Rain
1:50 AM 48.2 °F - 42.8 °F 82% 29.30 in 6.2 mi SW 13.8 mph 25.3 mph N/A   Scattered Clouds
2:00 AM 47 °F - 43 °F 82% 29.31 in 14 mi SW 13.8 mph - - Rain Rain
2:20 AM 46.4 °F 41.9 °F 42.8 °F 87% 29.30 in 6.2 mi SW 9.2 mph - N/A   Partly Cloudy
2:50 AM 46.4 °F 43.5 °F 42.8 °F 87% 29.30 in 6.2 mi SSW 5.8 mph - N/A   Partly Cloudy
3:00 AM 46 °F - 43 °F 87% 29.31 in 11 mi SSW 5.8 mph - -   Scattered Clouds
4:00 AM 47 °F - 44 °F 87% 29.31 in 9 mi SSW 9.2 mph - - Rain Rain
4:50 AM 44.6 °F 41.4 °F 42.8 °F 93% 29.30 in 3.7 mi West 5.8 mph - N/A Rain Rain
5:00 AM 44 °F - 42 °F 89% 29.30 in 2 mi West 4.6 mph - - Rain Rain
5:50 AM 42.8 °F 41.1 °F 41.0 °F 93% 29.27 in 6.2 mi East 3.5 mph - N/A Rain Light Rain
6:00 AM 43 °F - 42 °F 92% 29.29 in 11 mi East 3.5 mph - - Rain Rain
6:20 AM 44.6 °F 43.1 °F 42.8 °F 93% 29.27 in 6.2 mi South 3.5 mph - N/A   Partly Cloudy
6:50 AM 44.6 °F - 42.8 °F 93% 29.27 in 6.2 mi South 2.3 mph - N/A   Scattered Clouds
7:00 AM 43 °F - 42 °F 92% 29.29 in 10 mi South 2.3 mph - - Rain Rain
7:20 AM 46.4 °F 41.5 °F 42.8 °F 87% 29.27 in 6.2 mi SSW 10.4 mph - N/A   Scattered Clouds
7:50 AM 48.2 °F - 42.8 °F 82% 29.27 in 6.2 mi SSW 11.5 mph - N/A   Scattered Clouds
8:00 AM 47 °F - 44 °F 86% 29.28 in 7 mi SSW 11.5 mph - - Rain Rain
8:20 AM 48.2 °F - 44.6 °F 87% 29.27 in 6.2 mi SSW 11.5 mph - N/A Rain Rain Showers
8:50 AM 46.4 °F 41.1 °F 41.0 °F 81% 29.27 in 4.3 mi SW 11.5 mph - N/A   Mostly Cloudy
9:00 AM 46 °F - 42 °F 80% 29.28 in 6 mi SW 11.5 mph - - Rain Rain Showers
9:20 AM 46.4 °F 41.5 °F 41.0 °F 81% 29.27 in 6.2 mi SW 10.4 mph - N/A Rain Rain Showers
9:50 AM 44.6 °F 40.2 °F 41.0 °F 87% 29.27 in 3.7 mi SW 8.1 mph - N/A Rain Rain Showers
10:00 AM 44 °F - 41 °F 85% 29.28 in 3 mi SW 8.1 mph - - Rain Heavy Rain Showers
10:20 AM 46.4 °F 42.9 °F 42.8 °F 87% 29.27 in 6.2 mi SSW 6.9 mph - N/A   Mostly Cloudy
10:50 AM 46.4 °F - 42.8 °F 87% 29.24 in 6.2 mi Variable 1.2 mph - N/A   Mostly Cloudy
11:00 AM 46 °F - 43 °F 84% 29.26 in 19 mi SW 1.2 mph - - Rain Light Rain Showers
11:20 AM 46.4 °F - 42.8 °F 87% 29.24 in 5.6 mi Variable 2.3 mph - N/A   Mostly Cloudy
11:50 AM 50.0 °F - 44.6 °F 82% 29.21 in 6.2 mi SSW 20.7 mph - N/A   Mostly Cloudy
12:00 PM 51 °F - 45 °F 72% 29.21 in 7 mi SSW 20.7 mph - - Rain Rain
12:20 PM 50.0 °F - 42.8 °F 76% 29.18 in 6.2 mi SSW 21.9 mph - N/A   Scattered Clouds
12:50 PM 51.8 °F - 44.6 °F 76% 29.18 in 6.2 mi SSW 17.3 mph - N/A   Scattered Clouds
1:00 PM 51 °F - 44 °F 68% 29.19 in 9 mi SSW 17.3 mph - - Rain Rain
1:20 PM 50.0 °F - 42.8 °F 76% 29.18 in 6.2 mi SSW 19.6 mph 31.1 mph N/A Rain Light Rain Showers
1:50 PM 50.0 °F - 42.8 °F 76% 29.18 in 6.2 mi SSW 21.9 mph - N/A Rain Light Rain Showers
2:00 PM 49 °F - 43 °F 74% 29.18 in 9 mi SSW 20.7 mph - - Rain Light Rain
2:20 PM 48.2 °F - 44.6 °F 87% 29.15 in 6.2 mi SW 11.5 mph - N/A   Mostly Cloudy
3:00 PM 48 °F - 44 °F 81% 29.16 in 4 mi SSW 19.6 mph - - Rain Rain Showers
3:20 PM 48.2 °F - 44.6 °F 87% 29.15 in 6.2 mi SSW 16.1 mph - N/A   Mostly Cloudy
3:50 PM 48.2 °F - 42.8 °F 82% 29.12 in 6.2 mi SSW 19.6 mph - N/A   Mostly Cloudy
4:00 PM 48 °F - 43 °F 75% 29.14 in 9 mi SSW 19.6 mph - - Rain Rain
4:20 PM 48.2 °F - 42.8 °F 82% 29.12 in 6.2 mi SSW 19.6 mph - N/A Rain Light Rain Showers
4:50 PM 48.2 °F - 42.8 °F 82% 29.12 in 6.2 mi SSW 19.6 mph 31.1 mph N/A   Mostly Cloudy
5:00 PM 49 °F - 43 °F 71% 29.12 in 10 mi SSW 20.7 mph - - Rain Rain
5:20 PM 48.2 °F - 42.8 °F 82% 29.09 in 6.2 mi South 19.6 mph - N/A Rain Light Rain Showers
5:50 PM 48.2 °F - 42.8 °F 82% 29.06 in 6.2 mi SSW 18.4 mph - N/A   Scattered Clouds
6:00 PM 48 °F - 42 °F 74% 29.11 in 9 mi SSW 18.4 mph - - Rain Rain
6:20 PM 46.4 °F 39.8 °F 42.8 °F 87% 29.12 in 5.0 mi SW 16.1 mph - N/A Rain Rain Showers
6:50 PM 44.6 °F 38.1 °F 42.8 °F 93% 29.12 in 5.6 mi SSW 13.8 mph - N/A Rain Rain Showers
7:00 PM 45 °F - 43 °F 91% 29.12 in 7 mi SSW 13.8 mph - - Rain Rain Showers
7:20 PM 46.4 °F 40.1 °F 44.6 °F 93% 29.09 in 5.6 mi SSW 15.0 mph - N/A Rain Rain Showers
7:50 PM 46.4 °F 39.0 °F 42.8 °F 87% 29.12 in 5.0 mi SSW 19.6 mph 32.2 mph N/A Rain Rain Showers
8:00 PM 45 °F - 42 °F 83% 29.12 in 8 mi SW 17.3 mph - - Rain Rain Showers
8:20 PM 46.4 °F 40.4 °F 41.0 °F 81% 29.12 in 6.2 mi SSW 13.8 mph - N/A Rain Light Rain Showers
8:50 PM 46.4 °F 41.5 °F 41.0 °F 81% 29.12 in 6.2 mi SW 10.4 mph - N/A   Light Drizzle
9:00 PM 45 °F - 42 °F 83% 29.13 in 28 mi SW 10.4 mph - - Rain Rain
9:20 PM 44.6 °F 40.7 °F 41.0 °F 87% 29.12 in 6.2 mi SSW 6.9 mph - N/A   Scattered Clouds
9:50 PM 46.4 °F 39.2 °F 42.8 °F 87% 29.12 in 5.6 mi SSW 18.4 mph - N/A Rain Light Rain Showers
10:00 PM 47 °F - 43 °F 82% 29.13 in 6 mi SSW 18.4 mph - - Rain Rain Showers
10:20 PM 46.4 °F 41.1 °F 41.0 °F 81% 29.12 in 6.2 mi SSW 11.5 mph - N/A   Scattered Clouds
10:50 PM 46.4 °F 40.4 °F 42.8 °F 87% 29.12 in 6.2 mi SSW 13.8 mph - N/A Rain Light Rain Showers
11:00 PM 47 °F - 43 °F 81% 29.13 in 8 mi SSW 13.8 mph - - Rain Light Rain Showers